Location: Unspecified
(33.6682°S, 0.0000°E)
Time: 00:36:49
(UTC+00:00)

Courier 1B - Pass Details

Date: 24 June 2019
Orbit: 962 x 1209 km, 28.3° (Epoch: 19 August)

Event Time Altitude Azimuth Distance (km) Brightness Sun altitude
Exits shadow 05:09:59 15° 316° (NW) 2,649 9.5 -23.2°
Maximum altitude 05:15:32 39° 17° (NNE) 1,593 8.8 -22.0°
Drops below altitude 10° 05:21:57 10° 83° (E) 2,863 11.1 -20.8°
Sets 05:24:46 0° 90° (E) 3,781 12.0 -20.2°
